{"data":{"norad_id":46672,"intl_designator":"2020-073C","name":"STARLINK-1716","alt_names":[],"object_type":"PAYLOAD","status":"ACTIVE","operator":null,"country":"US","launch_date":"2020-10-18","launch_site_code":"AFETR","launch_vehicle":null,"mission":null,"orbit_class":"UNKNOWN","rcs_meters":null,"size_class":null,"mass_kg":null,"dimensions":null,"purposes":["comms"],"wikipedia_slug":null,"has_3d_model":false,"image_url":null,"decayed_at":null,"tle_current":{"epoch":"2026-05-25T00:00:02.000160Z","epoch_age_seconds":71004,"freshness":"FRESH","line1":"1 46672U 20073C   26145.00002315  .00194299  00000+0  86359-3 0  9993","line2":"2 46672  53.0370 181.9459 0005742 345.4415 173.7420 15.83259229  5966","mean_motion":15.83259229,"eccentricity":0.0005742,"inclination_deg":53.037,"raan_deg":181.9459,"arg_perigee_deg":345.4415,"mean_anomaly_deg":173.742,"bstar":0.00086359,"rev_number":596,"period_min":90.951625206033,"perigee_km":317.38403789598,"apogee_km":325.07759189461,"semimajor_km":6699.3678148953,"source":"CELESTRAK","updated_at":"2026-05-25T13:38:16.514435Z"}}}